Weather History for KMGW - October, 2012

Change the Weather History Date:

Tuesday, October 9, 2012

  Actual Average Record
Temperature  
Mean Temperature 49 °F 56 °F  
Max Temperature 58 °F 67 °F 85 °F (1949)
Min Temperature 40 °F 46 °F 29 °F (1987)
Degree Days  
Heating Degree Days 16 9  
Month to date heating degree days 78 72  
Since 1 July heating degree days 178 169  
Cooling Degree Days 0 1  
Month to date cooling degree days 13 9  
Year to date cooling degree days 1125 810  
Moisture  
Dew Point 41 °F    
Average Humidity 78    
Maximum Humidity 100    
Minimum Humidity 55    
Precipitation  
Precipitation 0.00 in 0.09 in 4.20 in (1979)
Month to date precipitation 0.50 0.85  
Year to date precipitation 24.48 33.53  
Sea Level Pressure  
Sea Level Pressure 30.15 in    
Wind  
Wind Speed 2 mph (South)    
Max Wind Speed 8 mph    
Max Gust Speed 12 mph    
Visibility 10 miles    
Events      
T = Trace of Precipitation, MM = Missing Value Source: NWS Daily Summary

Daily Weather History Graph

Daily Weather History Graph

Search for Another Location

Airport or City:

Trip Planner

Search our weather history database for the weather conditions in past years. The results will help you decide how hot, cold, wet, or windy it might be!

Date:

Astronomy

Oct. 09, 2012 Rise Set
Actual Time 7:24 AM EDT 6:48 PM EDT
Civil Twilight 6:57 AM EDT 7:15 PM EDT
Nautical Twilight 6:25 AM EDT 7:46 PM EDT
Astronomical Twilight 5:54 AM EDT 8:18 PM EDT
Moon 1:00 AM EDT (10/9) 3:14 PM EDT (10/9)
Length of Visible Light 12h 18m
Length of Day
11h 24m
Last Quarter, 37% of the Moon is Illuminated
Oct 9
Last Quarter
Oct 15
New
Oct 21
First Quarter
Oct 29
Full
Nov 6
Last Quarter

Hourly Weather History & Observations

Time (EDT) Temp. Windchill Dew Point Humidity Pressure Visibility Wind Dir Wind Speed Gust Speed Precip Events Conditions
12:53 AM 45.0 °F - 41.0 °F 86% 30.20 in 10.0 mi Calm Calm - N/A   Overcast
1:53 AM 45.0 °F - 41.0 °F 86% 30.21 in 10.0 mi Calm Calm - N/A   Overcast
2:53 AM 43.0 °F - 39.9 °F 89% 30.20 in 10.0 mi Calm Calm - N/A   Overcast
4:53 AM 42.1 °F - 39.9 °F 92% 30.19 in 10.0 mi Calm Calm - N/A   Scattered Clouds
5:53 AM 39.9 °F - 39.0 °F 97% 30.20 in 10.0 mi Calm Calm - N/A   Overcast
6:53 AM 41.0 °F - 39.0 °F 93% 30.22 in 10.0 mi Calm Calm - N/A   Overcast
7:53 AM 42.1 °F - 39.9 °F 92% 30.22 in 10.0 mi Calm Calm - N/A   Overcast
8:53 AM 44.1 °F - 41.0 °F 89% 30.22 in 10.0 mi Calm Calm - N/A   Clear
9:53 AM 46.9 °F - 42.1 °F 83% 30.23 in 10.0 mi Calm Calm - N/A   Overcast
10:53 AM 48.9 °F - 39.9 °F 71% 30.21 in 10.0 mi SSE 4.6 mph - N/A   Clear
11:53 AM 52.0 °F - 41.0 °F 66% 30.19 in 10.0 mi SSE 5.8 mph - N/A   Scattered Clouds
12:53 PM 55.0 °F - 41.0 °F 59% 30.17 in 10.0 mi SW 4.6 mph - N/A   Scattered Clouds
1:53 PM 57.0 °F - 41.0 °F 55% 30.14 in 10.0 mi Variable 4.6 mph - N/A   Scattered Clouds
2:53 PM 57.9 °F - 42.1 °F 56% 30.11 in 10.0 mi Calm Calm - N/A   Overcast
3:53 PM 57.0 °F - 42.1 °F 57% 30.10 in 10.0 mi South 3.5 mph - N/A   Overcast
4:53 PM 57.0 °F - 42.1 °F 57% 30.10 in 10.0 mi SSW 5.8 mph - N/A   Overcast
5:53 PM 55.9 °F - 41.0 °F 57% 30.10 in 10.0 mi South 3.5 mph - N/A   Clear
6:53 PM 53.1 °F - 41.0 °F 64% 30.09 in 10.0 mi SSW 3.5 mph - N/A   Clear
7:53 PM 48.9 °F - 42.1 °F 77% 30.08 in 10.0 mi South 4.6 mph - N/A   Clear
8:53 PM 46.9 °F - 42.1 °F 83% 30.09 in 10.0 mi Calm Calm - N/A   Clear
9:53 PM 44.1 °F 42.5 °F 42.1 °F 93% 30.08 in 10.0 mi South 3.5 mph - N/A   Clear
10:53 PM 42.1 °F - 41.0 °F 96% 30.07 in 10.0 mi Calm Calm - N/A   Clear
11:53 PM 42.1 °F - 41.0 °F 96% 30.05 in 10.0 mi Calm Calm - N/A   Clear